Printer-friendly version
Follow the MPC on Twitter Follow the MPC on Facebook The MPC blog
Minor Planet Center

MPEC 2007-L35 : 2004 RV10

The following Minor Planet Electronic Circular may be linked-to from your own Web pages, but must not otherwise be redistributed electronically.

A form allowing access to any MPEC is at the bottom of this page.


Read MPEC 2007-L34 Read MPEC 2007-L36


M.P.E.C. 2007-L35                                Issued 2007 June  9, 18:25 UT

     The Minor Planet Electronic Circulars contain information on unusual
         minor planets and routine data on comets.  They are published
   on behalf of Commission 20 of the International Astronomical Union by the
          Minor Planet Center, Smithsonian Astrophysical Observatory,
                          Cambridge, MA 02138, U.S.A.

             Prepared using the Tamkin Foundation Computer Network

                              MPC@CFA.HARVARD.EDU
          URL http://www.cfa.harvard.edu/iau/mpc.html  ISSN 1523-6714

                                   2004 RV10

                           Revision to MPEC 2004-R41

Additional Observations:
     K04R10V  C2007 06 06.20087917 52 14.12 +45 22 33.6          22.7   EL035H55
     K04R10V  C2007 06 06.23883317 52 10.28 +45 22 45.8          22.5   EL035H55
     K04R10V  C2007 06 09.20473917 47 08.19 +45 32 44.6          22.7   EL035H55
     K04R10V  C2007 06 09.23509817 47 05.03 +45 32 49.9          22.9   EL035H55
     K04R10V  C2007 06 09.25218417 47 03.20 +45 32 51.8          22.6   EL035H55
     K04R10V  C2007 06 09.26911117 47 01.18 +45 32 54.3          22.6   EL035H55

Observer details:
H55 Astronomical Research Observatory, Charleston.  Observer R. Holmes.
    0.81-m f/4.0 astrograph + CCD.

First and last observations above in comparison with prediction:
Residuals in seconds of arc, reference and Delta-T
070606 H55  4.8+  1.8-    070609 H55  3.6+  1.1-    MPO 77785   -0.0014 day

Orbital elements:
2004 RV10                                                Earth MOID = 0.2318 AU
Epoch 2007 Apr. 10.0 TT = JDT 2454200.5                 MPC
M 150.15732              (2000.0)            P               Q
n   0.60984198     Peri.  272.41236     +0.21245205     -0.95863817
a   1.3771815      Node   161.59460     +0.94649517     +0.25006696
e   0.2856643      Incl.   36.86290     -0.24292184     +0.13593888
P   1.62           H   19.5           G   0.15           U   3
Residuals in seconds of arc
040908 704  1.1+  0.6+    040909 734  0.8+  2.4-    040912 671  2.8-  0.5-
040908 704  0.4+  0.2+    040909 734  1.1+  0.8+    040912 671  0.3+  0.3+
040908 704  0.3+  0.0     040909 734  1.6+  0.7+    040917 448  0.9+  0.1+
040908 704  0.2-  1.0-    040909 704  0.1-  0.5+    040917 448  0.3+  0.1-
040908 704  0.6-  0.6-    040909 704  0.2-  0.1-    040917 448  0.0   0.3-
040908 704  1.1-  0.7-    040909 673  0.4-  1.7-    041031 474  0.6-  0.1+
040908 704  1.6-  0.6+    040909 704  0.0   0.3+    041031 474  0.3-  0.1-
040908 704  0.8-  0.0     040909 673  0.0   0.5-    041031 474  0.1+  0.2-
040908 704  0.3-  0.1+    040909 704  0.1+  0.4+    041031 474  0.1-  0.1-
040908 246  0.0   0.1+    040909 673  0.2-  0.4-    041031 474  0.6+  0.1-
040908 246  0.3-  0.1-    040909 673  0.0   0.0     041118 413  0.1-  0.0
040908 246  0.6-  0.4-    040909 704  0.2-  0.5+    041118 413  0.3-  0.2+
040908 246  0.6+  0.3+    040909 704  0.1-  0.2+    050221 474  0.3-  0.1+
040908 246  0.6+  0.4-    040911 448  0.2+  1.0-    050221 474  0.1-  0.2-
040908 246  0.2+  0.2+    040911 448  0.0   0.9-    050221 474  0.2+  0.2+
040908 J95  0.2-  0.0     040911 448  0.2-  0.2-    070606 H55  0.2-  0.6-
040908 J95  0.8+  0.8+    040911 448  0.7-  0.0     070606 H55  0.6+  1.0+
040908 J95  0.3-  0.1+    040912 448  0.5-  0.1-    070609 H55  0.3-  0.6-
040909 704  0.3-  0.4+    040912 448  0.0   0.1-    070609 H55  0.7+  0.3+
040909 734  0.1+  0.3-    040912 448  0.2-  0.2-    070609 H55  0.7+  0.2-
040909 704  0.6+  0.1+    040912 671  0.8+  1.3+    070609 H55  1.5-  0.0

Ephemeris:
2004 RV10                a,e,i = 1.38, 0.29, 37                  q = 0.9838
Date    TT    R. A. (2000) Decl.     Delta      r     Elong.  Phase     V
2007 06 09    17 47.49   +45 32.3    1.130    1.769   111.0    32.4    22.4
2007 06 14    17 38.71   +45 35.0    1.125    1.767   111.1    32.4    22.4
2007 06 19    17 29.82   +45 18.5    1.122    1.765   111.2    32.5    22.4
2007 06 24    17 21.15   +44 42.8    1.120    1.761   111.0    32.6    22.3
2007 06 29    17 13.00   +43 48.5    1.119    1.758   110.7    32.8    22.3
2007 07 04    17 05.62   +42 36.6    1.120    1.753   110.1    33.0    22.4
2007 07 09    16 59.19   +41 08.6    1.123    1.748   109.5    33.3    22.4
2007 07 14    16 53.86   +39 25.9    1.127    1.742   108.6    33.6    22.4
2007 07 19    16 49.71   +37 30.4    1.133    1.736   107.6    33.9    22.4

Timothy B. Spahr             (C) Copyright 2007 MPC           M.P.E.C. 2007-L35

Read MPEC 2007-L34 Read MPEC 2007-L36


MPEC number:

Enter an MPEC number in one of the following forms:

  • 1997-B01 (the full form)
  • J97B01 (the packed version of the full form)
  • B01 (the abbreviated form)

Valid HTML 4.01!